Regional Weather Roundup
Issued by NWS Green Bay, WI

Home | Current Version | Previous Version | Text Only | Print | Product List | Glossary On
Versions: 1 2 3 4 5 6 7 8 9 10 11 12 13 14 15 16 17 18 19 20 21 22 23 24 25 26 27 28 29 30 31 32 33 34 35 36 37 38 39 40 41 42 43 44 45 46 47 48 49 50
000
ASUS43 KGRB 302059
RWRGRB

NORTH-CENTRAL AND NORTHEAST WISCONSIN REGIONAL WEATHER ROUNDUP
NATIONAL WEATHER SERVICE GREEN BAY WI
400 PM CDT TUE SEP 30 2014

WIZ005-009-010>012-018-019-302200-
NORTH CENTRAL WISCONSIN

CITY           SKY/WX    TMP DP  RH WIND       PRES   REMARKS
IRONWOOD       NOT AVBL
MANITOWISH WTR NOT AVBL
ARBOR VITAE    NOT AVBL
EAGLE RIVER    NOT AVBL
LAND O LAKES   NOT AVBL
RHINELANDER    SUNNY     56  43  61 E7        30.04F
PHILLIPS       PTSUNNY   60  43  53 E6        30.00F
ANTIGO         NOT AVBL
TOMAHAWK       NOT AVBL
MERRILL        NOT AVBL
$$

WIZ013-073-302200-
NORTHEAST WISCONSIN

CITY           SKY/WX    TMP DP  RH WIND       PRES   REMARKS
IRON MOUNTAIN  MOSUNNY   57  42  57 S5        30.03F
MARINETTE      NOT AVBL
$$

WIZ017-030-035>037-045-302200-
CENTRAL WISCONSIN

CITY           SKY/WX    TMP DP  RH WIND       PRES   REMARKS
MEDFORD        NOT AVBL
WAUSAU         SUNNY     55  42  61 E9        30.01F
MOSINEE        SUNNY     54  45  71 SE7       30.03F
MARSHFIELD     SUNNY     55  43  63 SE7       30.01F
WISC RAPIDS    SUNNY     54  41  61 E10       30.04F
STEVENS POINT  NOT AVBL
WAUPACA        NOT AVBL
SHAWANO        CLOUDY    51  43  75 CALM      30.07F
CLINTONVILLE   NOT AVBL
$$

WIZ038-039-048-051-302200-
FOX VALLEY

CITY           SKY/WX    TMP DP  RH WIND       PRES   REMARKS
NWS GREEN BAY  CLOUDY    49  43  80 NE8       30.07F
APPLETON       CLOUDY    48  39  71 VRB5      30.07F
OSHKOSH        CLOUDY    49  42  77 E6        30.05F
FOND DU LAC    CLOUDY    50  43  77 NE7       30.05F
$$

WIZ022-050-052-302200-
EAST CENTRAL WISCONSIN

CITY           SKY/WX    TMP DP  RH WIND       PRES   REMARKS
STURGEON BAY   NOT AVBL
MANITOWOC      NOT AVBL
SHEBOYGAN      CLOUDY    50  43  77 N6        30.05F
$$

LMZ563-521-522-541>543-302200-
LAKESHORE

STATION/POSITION TIME  TEMP    WIND        PRES    VSBY  WAVE
                       AIR SEA DIR/SP/G                  HT/PER
                 (UTC) (F)     (DEG/KT/KT) (MB)    (MI)  (FT/S)
SHEBOYGAN LKSHOR 2000   48 54  360/ 12/ 13 1018.6F
KEWAUNEE LKSHORE 2000   49      30/  6/  7 1017.1F
NORTHPORT PIER   2000   50     340/  8/  9 1017.9F
N MID LAKE BUOY  2000   50 58  360/  8/ 12 1018.1F         1/ 4
S GREEN BAY BUOY 2000   49     VRB  4/  6  1019.2F
CHAMBERS ISLAND  2000   50     360/  6/ 11 1018.6R
MENOMINEE LKSHOR 2000   49      40/  2/  3 1018.7F
$$


USA.gov is the U.S. government's official web portal to all federal, state and local government web resources and services.